Location: Burgberg
(50.1428°N, 11.0671°E)
Time: 01:05:15
(UTC+00:00)

Cosmos 2056 Rocket - Pass Details

Date: 26 January 2020
Orbit: 741 x 801 km, 74.0° (Epoch: 28 February)

Event Time Altitude Azimuth Distance (km) Brightness Sun altitude
Exits shadow 04:55:41 20° 329° (NNW) 1,772 5.0 -19.5°
Maximum altitude 04:59:26 68° 251° (WSW) 864 3.5 -18.9°
Drops below altitude 10° 05:04:47 10° 169° (S) 2,367 6.3 -18.0°
Sets 05:07:11 0° 167° (SSE) 3,289 7.1 -17.7°
